EXPRESS-AT1

Last updated on Nov. 15, 2019, 4:20 a.m. UTC

1 39612U 14010A   19318.78216804  .00000092  00000-0  00000+0 0  9995
2 39612   0.0117 312.0190 0001329 341.2972  97.8431  1.00270626 20920
UTC
Height (km)
Latitude
Longitude
Inclination
Orbital Period
UTC large
Height (km)
Speed (km/s)
/
Latitude / Longitude
Inclination (degrees)
Orbital Period (minutes)
Azimuth
Elevation
Range (km)
Doppler Factor
iOS Compass Heading
iOS Angle

Next 30 passes for location: Hong Kong

Rise time Rise Azimuth (degrees) Set time Set Azimuth (degrees) Duration Max altitude (degrees)

No matching passes for this satellites